Lakehurst, NJ

6:33 PM EST on February 05, 2016 (GMT -0500)
Lakehurst Naes

Weather History for KNEL - June, 2013

Change the Weather History Date:

Tuesday, June 25, 2013

  Actual Average Record
Temperature  
Mean Temperature 84 °F -  
Max Temperature 84 °F 82 °F 97 °F (1998)
Min Temperature 69 °F 66 °F 55 °F (2015)
Cooling Degree Days 20    
Growing Degree Days 34 (Base 50)    
Moisture  
Dew Point 69 °F    
Average Humidity 58    
Maximum Humidity 87    
Minimum Humidity 35    
Precipitation  
Precipitation 0.00 in - - ()
Sea Level Pressure  
Sea Level Pressure 29.92 in    
Wind  
Wind Speed 5 mph (WSW)    
Max Wind Speed 17 mph    
Max Gust Speed 26 mph    
Averages and records for this station are not official NWS values.
T = Trace of Precipitation, MM = Missing Value Source: NWS Daily Summary

Daily Weather History Graph

Daily Weather History Graph

Search for Another Location

Airport or City:

Trip Planner

Search our weather history database for the weather conditions in past years. The results will help you decide how hot, cold, wet, or windy it might be!

Date:

Astronomy

Jun. 25, 2013 Rise Set
Actual Time 5:29 AM EDT 8:30 PM EDT
Civil Twilight 4:56 AM EDT 9:03 PM EDT
Nautical Twilight 4:15 AM EDT 9:44 PM EDT
Astronomical Twilight 3:26 AM EDT 10:33 PM EDT
Moon 10:14 PM EDT (6/25) 8:06 AM EDT (6/25)
Length of Visible Light 16h 06m
Length of Day
15h 00m
Waning Gibbous, 93% of the Moon is Illuminated
Jun 25
Waning Gibbous
Jun 30
Last Quarter
Jul 8
New
Jul 15
First Quarter
Jul 22
Full

Hourly Weather History & Observations

Time (EDT) Temp. Heat Index Dew Point Humidity Pressure Visibility Wind Dir Wind Speed Gust Speed Precip Events Conditions
12:00 AM 71.1 °F - 64.9 °F 81% 30.01 in - Calm Calm - N/A   Clear
1:00 AM 69.1 °F - 64.9 °F 87% 30.01 in - Calm Calm - N/A   Clear
2:00 AM 71.1 °F - 64.0 °F 78% 29.99 in - Calm Calm - N/A   Clear
3:00 AM 77.0 °F - 66.0 °F 69% 29.99 in - West 3.5 mph - N/A   Clear
4:00 AM 75.9 °F - 66.9 °F 74% 29.98 in - WSW 4.6 mph - N/A   Clear
5:00 AM 78.1 °F - 68.0 °F 71% 29.97 in - WSW 4.6 mph - N/A   Clear
8:00 AM 84.0 °F 88.4 °F 70.0 °F 63% 29.97 in - West 8.1 mph - N/A   Clear
11:00 AM 97.0 °F 107.0 °F 73.0 °F 46% 29.96 in - WSW 8.1 mph - N/A   Clear
12:00 PM 99.0 °F 109.3 °F 73.0 °F 43% 29.96 in - WSW 6.9 mph - N/A   Clear
2:00 PM 99.0 °F 105.5 °F 69.1 °F 38% 29.92 in - WSW 12.7 mph 21.9 mph N/A   Scattered Clouds
3:00 PM 100.0 °F 105.6 °F 68.0 °F 35% 29.89 in - WSW 12.7 mph - N/A   Partly Cloudy
5:00 PM 95.0 °F 99.5 °F 68.0 °F 41% 29.88 in - West 17.3 mph 26.5 mph N/A Rain Light Rain
5:21 PM 89.6 °F 96.2 °F 71.6 °F 55% 29.88 in - West 9.2 mph - N/A Thunderstorm Thunderstorm
5:50 PM 89.6 °F 96.2 °F 71.6 °F 55% 29.87 in - West 4.6 mph - N/A   Clear
6:00 PM 91.0 °F 97.6 °F 71.1 °F 52% 29.86 in - WSW 6.9 mph - N/A   Clear
6:28 PM 89.6 °F 94.7 °F 69.8 °F 52% 29.86 in - WSW 10.4 mph - N/A Thunderstorm Thunderstorm
6:44 PM 89.6 °F 93.4 °F 68.0 °F 49% 29.86 in - SW 8.1 mph - N/A   Clear
7:00 PM 89.1 °F 93.7 °F 69.1 °F 52% 29.85 in - WSW 9.2 mph - N/A   Clear
7:48 PM 87.8 °F 91.4 °F 68.0 °F 52% 29.86 in - West 5.8 mph - N/A   Partly Cloudy
9:00 PM 81.0 °F 83.3 °F 66.9 °F 62% 29.86 in - West 3.5 mph - N/A   Clear
10:00 PM 82.9 °F 85.4 °F 66.9 °F 58% 29.87 in - WSW 4.6 mph - N/A   Clear